Location: Wald
(31.7579°N, 86.6655°W)
Time: 11:32:59
(UTC+00:00)

Cosmos 2233 Rocket - Pass Details

Date: 14 July 2020
Orbit: 954 x 990 km, 82.9° (Epoch: 08 August)

Event Time Altitude Azimuth Distance (km) Brightness Sun altitude
Exits shadow 07:53:27 71° 129° (SE) 1,020 3.9 -29.3°
Maximum altitude 07:53:54 74° 93° (E) 1,004 4.0 -29.3°
Drops below altitude 10° 08:00:07 10° 10° (N) 2,724 7.1 -28.5°
Sets 08:02:39 0° 9° (N) 3,680 8.0 -28.2°
